Regional Weather Roundup
Issued by NWS

Home | Current Version | Previous Version | Graphics & Text | Print | Product List | Glossary On
Versions: 1 2 3 4 5 6 7 8 9 10 11 12 13 14 15 16 17 18 19 20 21 22 23 24 25 26 27 28 29 30 31 32 33 34 35 36 37 38 39 40 41 42 43 44 45 46 47 48 49 50
766
ASUS43 KMKX 250911
RWRWI

WISCONSIN REGIONAL WEATHER ROUNDUP
NATIONAL WEATHER SERVICE MILWAUKEE/SULLIVAN WI
400 AM CDT FRI MAY 25 2018

NOTE: "FAIR" INDICATES FEW OR NO CLOUDS BELOW 12,000 FEET WITH NO
SIGNIFICANT WEATHER AND/OR OBSTRUCTIONS TO VISIBILITY.

WIZ001-002-006>008-014>016-023>028-251000-
NORTHWEST WISCONSIN

CITY           SKY/WX    TMP DP  RH WIND       PRES   REMARKS
SUPERIOR ARPT    N/A     50  50 100 CALM      29.78S FOG
ASHLAND        FAIR      63  60  90 S6        29.78F
HAYWARD        FAIR      69  61  75 S3        29.81F
SIREN          FAIR      71  59  66 S13G18    29.81S
CUMBERLAND     FAIR      64  59  82 SW12      29.86R
RICE LAKE      CLOUDY    67  61  78 S9        29.87R
CHETEK         MOCLDY    66  62  87 SW8       29.85R
LADYSMITH      FAIR      64  62  94 S3        29.85S
EAU CLAIRE     FAIR      65  63  93 S7        29.85F
MENOMONIE      FAIR      65  63  94 S3        29.86F
NEW RICHMOND   HVY RAIN  65  61  87 SW17G25   29.90R
OSCEOLA        LGT RAIN  67  61  81 S18G25    29.88F
$$

WIZ003>005-009-010-017-018-251000-
NORTH CENTRAL WISCONSIN

CITY           SKY/WX    TMP DP  RH WIND       PRES   REMARKS
MANITOWISH WTR LGT RAIN  63  63 100 SW7       29.84F
ARBOR VITAE    CLOUDY    64  61  88 CALM      29.84F
WOODRUFF       CLOUDY    64  61  88 CALM      29.84F
RHINELANDER    FAIR      67  61  81 SW7       29.87F
EAGLE RIVER    FAIR      64  63  96 CALM      29.85F
LAND O LAKES   FAIR      64  62  94 CALM      29.87F
PHILLIPS       FAIR      64  61  90 S7        29.83F
TOMAHAWK       FAIR      60  57  89 CALM      29.86F
MEDFORD        FAIR      67  57  72 S12G20    29.85F
MERRILL        FAIR      64  61  88 SE6       29.87F
$$

WIZ029-030-035-036-043>047-251000-
CENTRAL WISCONSIN

CITY           SKY/WX    TMP DP  RH WIND       PRES   REMARKS
WAUSAU         FAIR      65  62  90 SE7       29.85F
MOSINEE        FAIR      63  61  94 S7        29.89F
MARSHFIELD     FAIR      64  61  90 SW5       29.88F
STEVENS POINT  FAIR      66  62  86 S6        29.90F
WAUPACA        FAIR      69  62  78 SW3       29.91F
WAUTOMA        FAIR      62  60  93 CALM      29.92F
WISC RAPIDS    FAIR      67  62  84 S6        29.90F
CAMP DOUGLAS   FAIR      65  62  89 SE3       29.90F
$$

WIZ011>013-019>022-031-037>040-048>050-251000-
NORTHEAST WISCONSIN

CITY           SKY/WX    TMP DP  RH WIND       PRES   REMARKS
ANTIGO         FAIR      64  61  90 SW6       29.90F
SHAWANO        FAIR      70  61  73 CALM      29.89F
OCONTO         FAIR      61  58  88 CALM      29.87F
STURGEON BAY   FAIR      65  57  75 SE3       29.89
GREEN BAY      FAIR      68  60  75 S5        29.90F
MANITOWOC      FAIR      66  55  67 S6        29.92F
APPLETON       FAIR      68  55  64 SW8       29.90F
CLINTONVILLE   FAIR      69  60  72 SW5       29.90S
OSHKOSH        FAIR      68  59  73 SW9       29.91F
$$

WIZ032>034-041-042-053>061-251000-
SOUTHWEST WISCONSIN

CITY           SKY/WX    TMP DP  RH WIND       PRES   REMARKS
LA CROSSE      FAIR      73  65  75 S8        29.87F
SPARTA         FAIR      62  60  96 CALM      29.90F
VIROQUA        FAIR      69  64  84 S7        29.93F
BOSCOBEL       FAIR      64  62  93 CALM      29.92F FOG
PRAIRIE DU CHI FAIR      68  60  74 CALM      29.91F
PLATTEVILLE    FAIR      66  62  85 S7        29.96F
$$

WIZ056-057-062-063-064-067-068-251000-
SOUTH CENTRAL WISCONSIN

CITY           SKY/WX    TMP DP  RH WIND       PRES   REMARKS
REEDSBURG      FAIR      69  61  73 CALM      29.92F
BARABOO/DELLS  FAIR      70  58  66 SW8       29.92F
LONE ROCK      FAIR      65  62  90 CALM      29.92F
MINERAL POINT  FAIR      68  61  77 S7        29.95F
MADISON        FAIR      69  60  73 S6        29.93F
MIDDLETON      FAIR      72  59  64 SW7       29.94F
WATERTOWN      FAIR      64  59  83 S5        29.94F
MONROE         FAIR      64  57  77 S8        29.96F
JANESVILLE     FAIR      64  55  72 CALM      29.96F
$$

WIZ051-052-058>065-066-070>072-251000-
SOUTHEAST WISCONSIN

CITY           SKY/WX    TMP DP  RH WIND       PRES   REMARKS
MILWAUKEE      FAIR      67  54  63 SW7       29.95F
WAUKESHA       FAIR      64  52  63 S5        29.97F
MILWAUKEE/TIMM FAIR      66  48  52 S5        29.96F
RACINE         FAIR      68  52  56 SW9       29.97F
BURLINGTON     FAIR      58  56  92 CALM      29.97S
KENOSHA        FAIR      67  52  58 SW7       29.97F
FOND DU LAC    FAIR      68  57  68 SW7       29.92F
SHEBOYGAN      FAIR      62  54  74 SW6       29.93F
WEST BEND      FAIR      66  52  59 S6        29.95F
JUNEAU         FAIR      65  57  77 S6        29.95F
$$

LSZ147-162-251000-
LAKE SUPERIOR

STATION/POSITION TIME  TEMP    WIND        PRES    WAVE
                       AIR SEA DIR/SP/G            HT/PER
                 (UTC) (F)     (DEG/KT/KT) (MB)    (FT/S)
W MID LAKE BUOY  0850   51 36  140/  8/  8 1008.2F   1
DEVILS ISLAND    0900   44     260/  9/  9 1008.7F
SAXON HARBOR     0840   73     190/  6/ 11 1007.5S
$$

LMZ867-665-643>646-251000-
LAKE MICHIGAN

STATION/POSITION TIME  TEMP    WIND        PRES    WAVE
                       AIR SEA DIR/SP/G            HT/PER
                 (UTC) (F)     (DEG/KT/KT) (MB)    (FT/S)
N MID LAKE BUOY  0850   44 38  170/ 10/ 12 1011.7F   1/ 4
NORTHPORT PIER   0900   55     150/  4/  9 1011.5
KEWAUNEE LAKESHO 0842   59     210/  6/  9 1011.9F
SHEBOYGAN LAKESH 0900   66     200/  8/  8 1013.0F
PORT WASHINGTON  0830   61     190/  3/  5 1014.9F
ATWATER BUOY     0807   57 49  180/  6/  8 1014.5    1
MILWAUKEE LAKESH 0850   70     220/  8/  9   N/A
S MID LAKE BUOY  0850   50 39  180/ 10/ 10 1015.3F   0
KENOSHA   LAKESH 0800   67                 1014.9
$$

TC  - TEMPERATURE IN CELSIUS
VSB - VISIBILITY IN STATUTE MILES
WCI - WIND CHILL INDEX
HX  - HEAT INDEX





USA.gov is the U.S. government's official web portal to all federal, state and local government web resources and services.